Year,Month,Day,Hour,Minute,Value (Times are PST for windgust in km/hr)
2017,06,07,00,21,1.60
2017,06,07,00,24,1.60
2017,06,07,00,25,1.60
2017,06,07,00,26,1.60
2017,06,07,00,27,3.20
2017,06,07,00,28,3.20
2017,06,07,00,29,3.20
2017,06,07,00,30,1.60
2017,06,07,00,31,1.60
2017,06,07,00,32,3.20
2017,06,07,00,33,1.60
2017,06,07,00,34,3.20
2017,06,07,00,35,3.20
2017,06,07,00,36,1.60
2017,06,07,00,41,1.60
2017,06,07,00,43,1.60
2017,06,07,00,44,1.60
2017,06,07,00,49,1.60
2017,06,07,00,50,1.60
2017,06,07,00,59,1.60
2017,06,07,01,00,1.60
2017,06,07,01,01,3.20
2017,06,07,01,02,3.20
2017,06,07,01,03,1.60
2017,06,07,01,04,3.20
2017,06,07,01,05,3.20
2017,06,07,01,06,3.20
2017,06,07,01,07,3.20
2017,06,07,01,08,3.20
2017,06,07,01,09,3.20
2017,06,07,01,10,3.20
2017,06,07,01,11,3.20
2017,06,07,01,12,3.20
2017,06,07,01,13,3.20
2017,06,07,01,14,3.20
2017,06,07,01,15,3.20
2017,06,07,01,16,3.20
2017,06,07,01,17,1.60
2017,06,07,01,18,3.20
2017,06,07,01,19,3.20
2017,06,07,01,20,3.20
2017,06,07,01,21,3.20
2017,06,07,01,22,3.20
2017,06,07,01,23,3.20
2017,06,07,01,24,4.80
2017,06,07,01,25,3.20
2017,06,07,01,26,3.20
2017,06,07,01,27,1.60
2017,06,07,01,30,1.60
2017,06,07,01,38,3.20
2017,06,07,01,39,3.20
2017,06,07,01,40,3.20
2017,06,07,01,41,3.20
2017,06,07,01,42,1.60
2017,06,07,01,43,1.60
2017,06,07,01,44,3.20
2017,06,07,01,45,3.20
2017,06,07,01,46,3.20
2017,06,07,01,47,3.20
2017,06,07,01,48,3.20
2017,06,07,01,49,3.20
2017,06,07,01,50,3.20
2017,06,07,01,51,3.20
2017,06,07,01,52,3.20
2017,06,07,01,53,3.20
2017,06,07,01,54,3.20
2017,06,07,01,55,4.80
2017,06,07,01,56,4.80
2017,06,07,01,57,4.80
2017,06,07,01,58,4.80
2017,06,07,01,59,4.80
2017,06,07,02,00,4.80
2017,06,07,02,01,4.80
2017,06,07,02,02,3.20
2017,06,07,02,03,3.20
2017,06,07,02,04,3.20
2017,06,07,02,05,4.80
2017,06,07,02,06,4.80
2017,06,07,02,07,4.80
2017,06,07,02,08,6.40
2017,06,07,02,09,4.80
2017,06,07,02,10,4.80
2017,06,07,02,11,4.80
2017,06,07,02,12,4.80
2017,06,07,02,13,4.80
2017,06,07,02,14,4.80
2017,06,07,02,15,4.80
2017,06,07,02,16,4.80
2017,06,07,02,17,6.40
2017,06,07,02,18,4.80
2017,06,07,02,19,4.80
2017,06,07,02,20,3.20
2017,06,07,03,28,3.20
2017,06,07,03,29,4.80
2017,06,07,03,30,6.40
2017,06,07,03,31,6.40
2017,06,07,03,32,6.40
2017,06,07,03,33,6.40
2017,06,07,03,34,4.80
2017,06,07,03,35,4.80
2017,06,07,03,36,4.80
2017,06,07,03,37,4.80
2017,06,07,03,38,4.80
2017,06,07,03,39,4.80
2017,06,07,03,40,4.80
2017,06,07,03,41,6.40
2017,06,07,03,42,6.40
2017,06,07,03,43,4.80
2017,06,07,03,44,3.20
2017,06,07,03,45,4.80
2017,06,07,03,46,3.20
2017,06,07,03,47,3.20
2017,06,07,03,48,4.80
2017,06,07,03,49,3.20
2017,06,07,03,50,4.80
2017,06,07,03,51,4.80
2017,06,07,03,52,4.80
2017,06,07,03,53,4.80
2017,06,07,03,54,4.80
2017,06,07,03,55,4.80
2017,06,07,03,56,3.20
2017,06,07,03,57,3.20
2017,06,07,03,58,4.80
2017,06,07,03,59,3.20
2017,06,07,04,00,4.80
2017,06,07,04,01,3.20
2017,06,07,04,02,3.20
2017,06,07,04,03,3.20
2017,06,07,04,04,3.20
2017,06,07,04,05,3.20
2017,06,07,04,06,3.20
2017,06,07,04,07,3.20
2017,06,07,04,08,1.60
2017,06,07,04,09,1.60
2017,06,07,04,10,1.60
2017,06,07,04,11,3.20
2017,06,07,04,12,4.80
2017,06,07,04,13,4.80
2017,06,07,04,14,1.60
2017,06,07,04,17,1.60
2017,06,07,04,27,1.60
2017,06,07,04,28,1.60
2017,06,07,04,29,1.60
2017,06,07,04,30,1.60
2017,06,07,04,35,1.60
2017,06,07,04,36,1.60
2017,06,07,04,38,1.60
2017,06,07,04,39,1.60
2017,06,07,04,42,1.60
2017,06,07,04,43,1.60
2017,06,07,04,57,1.60
2017,06,07,04,58,1.60
2017,06,07,04,59,1.60
2017,06,07,05,00,1.60
2017,06,07,05,01,1.60
2017,06,07,05,02,3.20
2017,06,07,05,03,3.20
2017,06,07,05,04,3.20
2017,06,07,05,05,3.20
2017,06,07,05,06,1.60
2017,06,07,05,07,3.20
2017,06,07,05,08,4.80
2017,06,07,05,09,3.20
2017,06,07,05,10,3.20
2017,06,07,05,11,3.20
2017,06,07,05,12,3.20
2017,06,07,05,13,3.20
2017,06,07,05,14,3.20
2017,06,07,05,15,3.20
2017,06,07,05,16,3.20
2017,06,07,05,17,3.20
2017,06,07,05,18,3.20
2017,06,07,05,19,3.20
2017,06,07,05,20,3.20
2017,06,07,05,21,1.60
2017,06,07,05,22,1.60
2017,06,07,05,23,1.60
2017,06,07,05,24,3.20
2017,06,07,05,25,1.60
2017,06,07,05,26,1.60
2017,06,07,05,27,1.60
2017,06,07,05,29,1.60
2017,06,07,05,30,3.20
2017,06,07,05,31,3.20
2017,06,07,05,32,3.20
2017,06,07,05,33,3.20
2017,06,07,05,34,1.60
2017,06,07,05,35,1.60
2017,06,07,05,41,1.60
2017,06,07,05,42,3.20
2017,06,07,05,43,3.20
2017,06,07,05,44,3.20
2017,06,07,05,45,3.20
2017,06,07,05,46,3.20
2017,06,07,05,47,3.20
2017,06,07,05,48,3.20
2017,06,07,05,49,4.80
2017,06,07,05,50,3.20
2017,06,07,05,51,4.80
2017,06,07,05,52,4.80
2017,06,07,05,53,6.40
2017,06,07,05,54,6.40
2017,06,07,05,55,4.80
2017,06,07,05,56,4.80
2017,06,07,05,57,4.80
2017,06,07,05,58,4.80
2017,06,07,05,59,4.80
2017,06,07,06,00,4.80
2017,06,07,06,01,4.80
2017,06,07,06,02,4.80
2017,06,07,06,03,3.20
2017,06,07,06,04,4.80
2017,06,07,06,05,3.20
2017,06,07,06,06,3.20
2017,06,07,06,07,4.80
2017,06,07,06,08,4.80
2017,06,07,06,09,3.20
2017,06,07,06,10,3.20
2017,06,07,06,11,4.80
2017,06,07,06,12,3.20
2017,06,07,06,13,4.80
2017,06,07,06,14,3.20
2017,06,07,06,15,4.80
2017,06,07,06,16,3.20
2017,06,07,06,17,3.20
2017,06,07,06,18,3.20
2017,06,07,06,19,3.20
2017,06,07,06,20,3.20
2017,06,07,06,21,4.80
2017,06,07,06,22,4.80
2017,06,07,06,23,3.20
2017,06,07,06,24,3.20
2017,06,07,06,25,3.20
2017,06,07,06,26,1.60
2017,06,07,06,27,1.60
2017,06,07,06,28,3.20
2017,06,07,06,29,4.80
2017,06,07,06,30,4.80
2017,06,07,06,31,3.20
2017,06,07,06,32,3.20
2017,06,07,06,33,1.60
2017,06,07,06,34,1.60
2017,06,07,06,36,1.60
2017,06,07,06,37,1.60
2017,06,07,06,38,1.60
2017,06,07,06,39,1.60
2017,06,07,07,08,1.60
2017,06,07,07,09,1.60
2017,06,07,07,10,1.60
2017,06,07,07,11,1.60
2017,06,07,07,23,1.60
2017,06,07,07,31,1.60
2017,06,07,07,37,1.60
2017,06,07,07,38,1.60
2017,06,07,07,39,1.60
2017,06,07,07,40,1.60
2017,06,07,07,42,1.60
2017,06,07,07,43,3.20
2017,06,07,07,44,3.20
2017,06,07,07,45,3.20
2017,06,07,07,46,4.80
2017,06,07,07,47,4.80
2017,06,07,07,48,3.20
2017,06,07,07,49,4.80
2017,06,07,07,50,3.20
2017,06,07,07,51,3.20
2017,06,07,07,52,3.20
2017,06,07,07,53,4.80
2017,06,07,07,54,6.40
2017,06,07,07,55,4.80
2017,06,07,07,56,4.80
2017,06,07,07,57,4.80
2017,06,07,07,58,6.40
2017,06,07,07,59,4.80
2017,06,07,08,00,3.20
2017,06,07,08,01,4.80
2017,06,07,08,02,6.40
2017,06,07,08,03,4.80
2017,06,07,08,04,4.80
2017,06,07,08,05,4.80
2017,06,07,08,06,4.80
2017,06,07,08,07,4.80
2017,06,07,08,08,8.10
2017,06,07,08,09,8.10
2017,06,07,08,10,4.80
2017,06,07,08,11,6.40
2017,06,07,08,12,4.80
2017,06,07,08,13,6.40
2017,06,07,08,14,4.80
2017,06,07,08,15,4.80
2017,06,07,08,16,4.80
2017,06,07,08,17,4.80
2017,06,07,08,18,4.80
2017,06,07,08,19,4.80
2017,06,07,08,20,3.20
2017,06,07,08,21,3.20
2017,06,07,08,22,4.80
2017,06,07,08,23,4.80
2017,06,07,08,24,4.80
2017,06,07,08,25,6.40
2017,06,07,08,26,6.40
2017,06,07,08,27,4.80
2017,06,07,08,28,4.80
2017,06,07,08,29,3.20
2017,06,07,08,30,4.80
2017,06,07,08,31,4.80
2017,06,07,08,32,4.80
2017,06,07,08,33,3.20
2017,06,07,08,34,3.20
2017,06,07,08,35,1.60
2017,06,07,08,36,4.80
2017,06,07,08,37,3.20
2017,06,07,08,38,3.20
2017,06,07,08,39,4.80
2017,06,07,08,40,4.80
2017,06,07,08,41,11.30
2017,06,07,08,42,6.40
2017,06,07,08,43,4.80
2017,06,07,08,44,3.20
2017,06,07,08,45,6.40
2017,06,07,08,46,6.40
2017,06,07,08,47,8.10
2017,06,07,08,48,8.10
2017,06,07,08,49,4.80
2017,06,07,08,50,8.10
2017,06,07,08,51,8.10
2017,06,07,08,52,6.40
2017,06,07,08,53,6.40
2017,06,07,08,54,3.20
2017,06,07,08,55,8.10
2017,06,07,08,56,4.80
2017,06,07,08,57,8.10
2017,06,07,08,58,8.10
2017,06,07,08,59,6.40
2017,06,07,09,00,4.80
2017,06,07,09,01,8.10
2017,06,07,09,02,6.40
2017,06,07,09,03,8.10
2017,06,07,09,04,4.80
2017,06,07,09,05,4.80
2017,06,07,09,06,6.40
2017,06,07,09,07,3.20
2017,06,07,09,08,4.80
2017,06,07,09,09,8.10
2017,06,07,09,10,1.60
2017,06,07,09,11,4.80
2017,06,07,09,12,4.80
2017,06,07,09,13,4.80
2017,06,07,09,15,6.40
2017,06,07,09,16,6.40
2017,06,07,09,17,6.40
2017,06,07,09,18,4.80
2017,06,07,09,19,3.20
2017,06,07,09,20,6.40
2017,06,07,09,21,4.80
2017,06,07,09,22,8.10
2017,06,07,09,23,6.40
2017,06,07,09,24,8.10
2017,06,07,09,25,8.10
2017,06,07,09,26,9.60
2017,06,07,09,27,12.90
2017,06,07,09,28,11.30
2017,06,07,09,29,9.60
2017,06,07,09,30,8.10
2017,06,07,09,31,9.60
2017,06,07,09,32,11.30
2017,06,07,09,33,9.60
2017,06,07,09,34,8.10
2017,06,07,09,35,6.40
2017,06,07,09,36,9.60
2017,06,07,09,37,9.60
2017,06,07,09,38,9.60
2017,06,07,09,39,6.40
2017,06,07,09,40,11.30
2017,06,07,09,41,8.10
2017,06,07,09,42,8.10
2017,06,07,09,43,8.10
2017,06,07,09,44,6.40
2017,06,07,09,45,9.60
2017,06,07,09,46,9.60
2017,06,07,09,47,9.60
2017,06,07,09,48,8.10
2017,06,07,09,49,6.40
2017,06,07,09,50,6.40
2017,06,07,09,51,12.90
2017,06,07,09,52,9.60
2017,06,07,09,53,9.60
2017,06,07,09,54,8.10
2017,06,07,09,55,8.10
2017,06,07,09,56,4.80
2017,06,07,09,57,8.10
2017,06,07,09,58,8.10
2017,06,07,09,59,6.40
2017,06,07,10,00,6.40
2017,06,07,10,01,4.80
2017,06,07,10,02,3.20
2017,06,07,10,03,3.20
2017,06,07,10,04,8.10
2017,06,07,10,05,4.80
2017,06,07,10,06,4.80
2017,06,07,10,07,6.40
2017,06,07,10,08,4.80
2017,06,07,10,09,4.80
2017,06,07,10,10,8.10
2017,06,07,10,11,6.40
2017,06,07,10,12,4.80
2017,06,07,10,13,6.40
2017,06,07,10,14,3.20
2017,06,07,10,15,4.80
2017,06,07,10,16,6.40
2017,06,07,10,17,3.20
2017,06,07,10,18,3.20
2017,06,07,10,19,6.40
2017,06,07,10,20,8.10
2017,06,07,10,21,11.30
2017,06,07,10,22,11.30
2017,06,07,10,23,8.10
2017,06,07,10,24,9.60
2017,06,07,10,25,8.10
2017,06,07,10,26,8.10
2017,06,07,10,27,8.10
2017,06,07,10,28,6.40
2017,06,07,10,29,4.80
2017,06,07,10,30,6.40
2017,06,07,10,31,4.80
2017,06,07,10,32,8.10
2017,06,07,10,33,9.60
2017,06,07,10,34,9.60
2017,06,07,10,35,8.10
2017,06,07,10,36,4.80
2017,06,07,10,37,9.60
2017,06,07,10,38,8.10
2017,06,07,10,39,9.60
2017,06,07,10,40,8.10
2017,06,07,10,41,12.90
2017,06,07,10,42,12.90
2017,06,07,10,43,12.90
2017,06,07,10,44,9.60
2017,06,07,10,45,11.30
2017,06,07,10,46,11.30
2017,06,07,10,47,9.60
2017,06,07,10,48,11.30
2017,06,07,10,49,12.90
2017,06,07,10,50,9.60
2017,06,07,10,51,9.60
2017,06,07,10,52,9.60
2017,06,07,10,53,11.30
2017,06,07,10,54,11.30
2017,06,07,10,55,12.90
2017,06,07,10,56,11.30
2017,06,07,10,57,14.50
2017,06,07,10,58,12.90
2017,06,07,10,59,11.30
2017,06,07,11,00,12.90
2017,06,07,11,01,9.60
2017,06,07,11,02,8.10
2017,06,07,11,03,11.30
2017,06,07,11,04,12.90
2017,06,07,11,05,11.30
2017,06,07,11,06,12.90
2017,06,07,11,07,11.30
2017,06,07,11,08,9.60
2017,06,07,11,09,12.90
2017,06,07,11,10,9.60
2017,06,07,11,11,11.30
2017,06,07,11,12,12.90
2017,06,07,11,13,11.30
2017,06,07,11,14,8.10
2017,06,07,11,15,14.50
2017,06,07,11,16,14.50
2017,06,07,11,17,16.10
2017,06,07,11,18,12.90
2017,06,07,11,19,14.50
2017,06,07,11,20,11.30
2017,06,07,11,21,14.50
2017,06,07,11,22,11.30
2017,06,07,11,23,8.10
2017,06,07,11,24,16.10
2017,06,07,11,25,12.90
2017,06,07,11,26,12.90
2017,06,07,11,27,14.50
2017,06,07,11,28,11.30
2017,06,07,11,29,12.90
2017,06,07,11,30,11.30
2017,06,07,11,31,14.50
2017,06,07,11,32,14.50
2017,06,07,11,33,12.90
2017,06,07,11,34,12.90
2017,06,07,11,35,12.90
2017,06,07,11,36,14.50
2017,06,07,11,37,14.50
2017,06,07,11,38,11.30
2017,06,07,11,39,12.90
2017,06,07,11,40,14.50
2017,06,07,11,41,16.10
2017,06,07,11,42,12.90
2017,06,07,11,43,11.30
2017,06,07,11,44,12.90
2017,06,07,11,45,11.30
2017,06,07,11,46,11.30
2017,06,07,11,47,12.90
2017,06,07,11,48,9.60
2017,06,07,11,49,8.10
2017,06,07,11,50,14.50
2017,06,07,11,51,12.90
2017,06,07,11,52,12.90
2017,06,07,11,53,12.90
2017,06,07,11,54,14.50
2017,06,07,11,55,12.90
2017,06,07,11,56,11.30
2017,06,07,11,57,12.90
2017,06,07,11,58,9.60
2017,06,07,11,59,11.30
2017,06,07,12,00,9.60
2017,06,07,12,01,9.60
2017,06,07,12,02,11.30
2017,06,07,12,03,11.30
2017,06,07,12,04,9.60
2017,06,07,12,05,11.30
2017,06,07,12,06,12.90
2017,06,07,12,07,8.10
2017,06,07,12,08,9.60
2017,06,07,12,09,11.30
2017,06,07,12,10,9.60
2017,06,07,12,11,9.60
2017,06,07,12,12,8.10
2017,06,07,12,13,6.40
2017,06,07,12,14,11.30
2017,06,07,12,15,8.10
2017,06,07,12,16,9.60
2017,06,07,12,17,11.30
2017,06,07,12,18,11.30
2017,06,07,12,19,12.90
2017,06,07,12,20,12.90
2017,06,07,12,21,14.50
2017,06,07,12,22,14.50
2017,06,07,12,23,14.50
2017,06,07,12,24,11.30
2017,06,07,12,25,11.30
2017,06,07,12,26,11.30
2017,06,07,12,27,11.30
2017,06,07,12,28,12.90
2017,06,07,12,29,12.90
2017,06,07,12,30,12.90
2017,06,07,12,31,12.90
2017,06,07,12,32,11.30
2017,06,07,12,33,9.60
2017,06,07,12,34,9.60
2017,06,07,12,35,9.60
2017,06,07,12,36,11.30
2017,06,07,12,37,8.10
2017,06,07,12,38,12.90
2017,06,07,12,39,12.90
2017,06,07,12,40,11.30
2017,06,07,12,41,11.30
2017,06,07,12,42,6.40
2017,06,07,12,43,9.60
2017,06,07,12,44,8.10
2017,06,07,12,45,6.40
2017,06,07,12,46,6.40
2017,06,07,12,47,9.60
2017,06,07,12,48,9.60
2017,06,07,12,49,11.30
2017,06,07,12,50,11.30
2017,06,07,12,51,11.30
2017,06,07,12,52,11.30
2017,06,07,12,53,11.30
2017,06,07,12,54,12.90
2017,06,07,12,55,11.30
2017,06,07,12,56,8.10
2017,06,07,12,57,11.30
2017,06,07,12,58,8.10
2017,06,07,12,59,8.10
2017,06,07,13,00,9.60
2017,06,07,13,01,9.60
2017,06,07,13,02,11.30
2017,06,07,13,03,11.30
2017,06,07,13,04,14.50
2017,06,07,13,05,12.90
2017,06,07,13,06,14.50
2017,06,07,13,07,12.90
2017,06,07,13,08,9.60
2017,06,07,13,09,9.60
2017,06,07,13,10,12.90
2017,06,07,13,11,11.30
2017,06,07,13,12,8.10
2017,06,07,13,13,9.60
2017,06,07,13,14,9.60
2017,06,07,13,15,8.10
2017,06,07,13,16,9.60
2017,06,07,13,17,11.30
2017,06,07,13,18,9.60
2017,06,07,13,19,9.60
2017,06,07,13,20,11.30
2017,06,07,13,21,14.50
2017,06,07,13,22,12.90
2017,06,07,13,23,11.30
2017,06,07,13,24,9.60
2017,06,07,13,25,12.90
2017,06,07,13,26,12.90
2017,06,07,13,27,9.60
2017,06,07,13,28,9.60
2017,06,07,13,29,9.60
2017,06,07,13,30,14.50
2017,06,07,13,31,12.90
2017,06,07,13,32,12.90
2017,06,07,13,33,9.60
2017,06,07,13,34,11.30
2017,06,07,13,35,11.30
2017,06,07,13,36,8.10
2017,06,07,13,37,12.90
2017,06,07,13,38,9.60
2017,06,07,13,39,8.10
2017,06,07,13,40,9.60
2017,06,07,13,41,9.60
2017,06,07,13,42,9.60
2017,06,07,13,43,11.30
2017,06,07,13,44,11.30
2017,06,07,13,45,6.40
2017,06,07,13,46,9.60
2017,06,07,13,47,8.10
2017,06,07,13,48,9.60
2017,06,07,13,49,6.40
2017,06,07,13,50,8.10
2017,06,07,13,51,9.60
2017,06,07,13,52,8.10
2017,06,07,13,53,8.10
2017,06,07,13,54,9.60
2017,06,07,13,55,8.10
2017,06,07,13,56,8.10
2017,06,07,13,57,9.60
2017,06,07,13,58,8.10
2017,06,07,13,59,8.10
2017,06,07,14,00,9.60
2017,06,07,14,01,11.30
2017,06,07,14,02,9.60
2017,06,07,14,03,8.10
2017,06,07,14,04,12.90
2017,06,07,14,05,11.30
2017,06,07,14,06,11.30
2017,06,07,14,07,9.60
2017,06,07,14,08,11.30
2017,06,07,14,09,11.30
2017,06,07,14,10,8.10
2017,06,07,14,11,9.60
2017,06,07,14,12,12.90
2017,06,07,14,13,14.50
2017,06,07,14,14,8.10
2017,06,07,14,15,11.30
2017,06,07,14,16,12.90
2017,06,07,14,17,9.60
2017,06,07,14,18,12.90
2017,06,07,14,19,8.10
2017,06,07,14,20,11.30
2017,06,07,14,21,8.10
2017,06,07,14,22,9.60
2017,06,07,14,23,11.30
2017,06,07,14,24,9.60
2017,06,07,14,25,9.60
2017,06,07,14,26,11.30
2017,06,07,14,27,12.90
2017,06,07,14,28,9.60
2017,06,07,14,29,6.40
2017,06,07,14,30,9.60
2017,06,07,14,31,11.30
2017,06,07,14,32,12.90
2017,06,07,14,33,12.90
2017,06,07,14,34,9.60
2017,06,07,14,35,9.60
2017,06,07,14,36,9.60
2017,06,07,14,37,9.60
2017,06,07,14,38,6.40
2017,06,07,14,39,8.10
2017,06,07,14,40,3.20
2017,06,07,14,41,3.20
2017,06,07,14,42,6.40
2017,06,07,14,43,9.60
2017,06,07,14,44,9.60
2017,06,07,14,45,8.10
2017,06,07,14,46,12.90
2017,06,07,14,47,11.30
2017,06,07,14,48,11.30
2017,06,07,14,49,9.60
2017,06,07,14,50,9.60
2017,06,07,14,51,11.30
2017,06,07,14,52,12.90
2017,06,07,14,53,8.10
2017,06,07,14,54,9.60
2017,06,07,14,55,8.10
2017,06,07,14,56,11.30
2017,06,07,14,57,11.30
2017,06,07,14,58,11.30
2017,06,07,14,59,11.30
2017,06,07,15,00,11.30
2017,06,07,15,01,8.10
2017,06,07,15,02,11.30
2017,06,07,15,03,9.60
2017,06,07,15,04,11.30
2017,06,07,15,05,8.10
2017,06,07,15,06,8.10
2017,06,07,15,07,11.30
2017,06,07,15,08,8.10
2017,06,07,15,09,12.90
2017,06,07,15,10,12.90
2017,06,07,15,11,14.50
2017,06,07,15,12,6.40
2017,06,07,15,13,6.40
2017,06,07,15,14,12.90
2017,06,07,15,15,12.90
2017,06,07,15,16,9.60
2017,06,07,15,17,14.50
2017,06,07,15,18,12.90
2017,06,07,15,19,11.30
2017,06,07,15,20,9.60
2017,06,07,15,21,9.60
2017,06,07,15,22,14.50
2017,06,07,15,23,12.90
2017,06,07,15,24,11.30
2017,06,07,15,25,12.90
2017,06,07,15,26,12.90
2017,06,07,15,27,12.90
2017,06,07,15,28,9.60
2017,06,07,15,29,11.30
2017,06,07,15,30,11.30
2017,06,07,15,31,11.30
2017,06,07,15,32,11.30
2017,06,07,15,33,9.60
2017,06,07,15,34,9.60
2017,06,07,15,35,11.30
2017,06,07,15,36,8.10
2017,06,07,15,37,8.10
2017,06,07,15,38,11.30
2017,06,07,15,39,12.90
2017,06,07,15,40,8.10
2017,06,07,15,41,14.50
2017,06,07,15,42,12.90
2017,06,07,15,43,14.50
2017,06,07,15,44,14.50
2017,06,07,15,45,16.10
2017,06,07,15,46,14.50
2017,06,07,15,47,16.10
2017,06,07,15,48,12.90
2017,06,07,15,49,16.10
2017,06,07,15,50,16.10
2017,06,07,15,51,11.30
2017,06,07,15,52,12.90
2017,06,07,15,53,11.30
2017,06,07,15,54,12.90
2017,06,07,15,55,9.60
2017,06,07,15,56,9.60
2017,06,07,15,57,9.60
2017,06,07,15,58,11.30
2017,06,07,15,59,11.30
2017,06,07,16,00,14.50
2017,06,07,16,01,16.10
2017,06,07,16,02,14.50
2017,06,07,16,03,17.70
2017,06,07,16,04,16.10
2017,06,07,16,05,16.10
2017,06,07,16,06,14.50
2017,06,07,16,07,14.50
2017,06,07,16,08,9.60
2017,06,07,16,09,16.10
2017,06,07,16,10,12.90
2017,06,07,16,11,16.10
2017,06,07,16,12,14.50
2017,06,07,16,13,12.90
2017,06,07,16,14,12.90
2017,06,07,16,15,14.50
2017,06,07,16,16,14.50
2017,06,07,16,17,14.50
2017,06,07,16,18,11.30
2017,06,07,16,19,11.30
2017,06,07,16,20,14.50
2017,06,07,16,21,16.10
2017,06,07,16,22,14.50
2017,06,07,16,23,9.60
2017,06,07,16,24,9.60
2017,06,07,16,25,8.10
2017,06,07,16,26,12.90
2017,06,07,16,27,11.30
2017,06,07,16,28,8.10
2017,06,07,16,29,11.30
2017,06,07,16,30,12.90
2017,06,07,16,31,17.70
2017,06,07,16,32,17.70
2017,06,07,16,33,17.70
2017,06,07,16,34,14.50
2017,06,07,16,35,14.50
2017,06,07,16,36,9.60
2017,06,07,16,37,11.30
2017,06,07,16,38,12.90
2017,06,07,16,39,11.30
2017,06,07,16,40,9.60
2017,06,07,16,41,12.90
2017,06,07,16,42,11.30
2017,06,07,16,43,14.50
2017,06,07,16,44,12.90
2017,06,07,16,45,14.50
2017,06,07,16,46,14.50
2017,06,07,16,47,12.90
2017,06,07,16,48,17.70
2017,06,07,16,49,11.30
2017,06,07,16,50,14.50
2017,06,07,16,51,12.90
2017,06,07,16,52,11.30
2017,06,07,16,53,12.90
2017,06,07,16,54,12.90
2017,06,07,16,55,9.60
2017,06,07,16,56,17.70
2017,06,07,16,57,16.10
2017,06,07,16,58,12.90
2017,06,07,16,59,12.90
2017,06,07,17,00,12.90
2017,06,07,17,01,8.10
2017,06,07,17,02,14.50
2017,06,07,17,03,16.10
2017,06,07,17,04,12.90
2017,06,07,17,05,14.50
2017,06,07,17,06,14.50
2017,06,07,17,07,11.30
2017,06,07,17,08,9.60
2017,06,07,17,09,9.60
2017,06,07,17,10,12.90
2017,06,07,17,11,14.50
2017,06,07,17,12,14.50
2017,06,07,17,13,17.70
2017,06,07,17,14,14.50
2017,06,07,17,15,14.50
2017,06,07,17,16,9.60
2017,06,07,17,17,12.90
2017,06,07,17,18,12.90
2017,06,07,17,19,19.30
2017,06,07,17,20,12.90
2017,06,07,17,21,9.60
2017,06,07,17,22,6.40
2017,06,07,17,23,6.40
2017,06,07,17,24,6.40
2017,06,07,17,25,8.10
2017,06,07,17,26,12.90
2017,06,07,17,27,11.30
2017,06,07,17,28,11.30
2017,06,07,17,29,8.10
2017,06,07,17,30,14.50
2017,06,07,17,31,11.30
2017,06,07,17,32,11.30
2017,06,07,17,33,8.10
2017,06,07,17,34,11.30
2017,06,07,17,35,11.30
2017,06,07,17,36,9.60
2017,06,07,17,37,6.40
2017,06,07,17,38,8.10
2017,06,07,17,39,6.40
2017,06,07,17,40,6.40
2017,06,07,17,41,8.10
2017,06,07,17,42,8.10
2017,06,07,17,43,8.10
2017,06,07,17,44,6.40
2017,06,07,17,45,6.40
2017,06,07,17,46,8.10
2017,06,07,17,47,9.60
2017,06,07,17,48,8.10
2017,06,07,17,49,11.30
2017,06,07,17,50,9.60
2017,06,07,17,51,8.10
2017,06,07,17,52,4.80
2017,06,07,17,53,6.40
2017,06,07,17,54,8.10
2017,06,07,17,55,6.40
2017,06,07,17,56,8.10
2017,06,07,17,57,8.10
2017,06,07,17,58,4.80
2017,06,07,17,59,6.40
2017,06,07,18,00,4.80
2017,06,07,18,01,4.80
2017,06,07,18,02,4.80
2017,06,07,18,03,11.30
2017,06,07,18,04,8.10
2017,06,07,18,05,8.10
2017,06,07,18,06,3.20
2017,06,07,18,07,3.20
2017,06,07,18,08,3.20
2017,06,07,18,09,3.20
2017,06,07,18,10,3.20
2017,06,07,18,11,6.40
2017,06,07,18,12,6.40
2017,06,07,18,13,8.10
2017,06,07,18,14,6.40
2017,06,07,18,15,4.80
2017,06,07,18,16,3.20
2017,06,07,18,17,4.80
2017,06,07,18,18,4.80
2017,06,07,18,19,4.80
2017,06,07,18,20,3.20
2017,06,07,18,21,3.20
2017,06,07,18,22,3.20
2017,06,07,18,23,4.80
2017,06,07,18,24,4.80
2017,06,07,18,25,4.80
2017,06,07,18,26,4.80
2017,06,07,18,27,4.80
2017,06,07,18,28,3.20
2017,06,07,18,29,8.10
2017,06,07,18,30,4.80
2017,06,07,18,31,4.80
2017,06,07,18,32,4.80
2017,06,07,18,33,4.80
2017,06,07,18,34,4.80
2017,06,07,18,35,4.80
2017,06,07,18,36,3.20
2017,06,07,18,37,1.60
2017,06,07,18,43,1.60
2017,06,07,18,44,1.60
2017,06,07,18,48,3.20
2017,06,07,18,49,3.20
2017,06,07,18,50,3.20
2017,06,07,18,51,3.20
2017,06,07,18,52,1.60
2017,06,07,18,57,3.20
2017,06,07,18,58,3.20
2017,06,07,18,59,3.20
2017,06,07,19,00,3.20
2017,06,07,19,01,3.20
2017,06,07,19,02,3.20
2017,06,07,19,03,1.60
2017,06,07,19,04,3.20
2017,06,07,19,05,1.60
2017,06,07,19,10,1.60
2017,06,07,19,11,3.20
2017,06,07,19,12,3.20
2017,06,07,19,13,3.20
2017,06,07,19,14,4.80
2017,06,07,19,15,4.80
2017,06,07,19,16,4.80
2017,06,07,19,17,6.40
2017,06,07,19,18,4.80
2017,06,07,19,19,3.20
2017,06,07,19,20,4.80
2017,06,07,19,21,3.20
2017,06,07,19,22,3.20
2017,06,07,19,23,3.20
2017,06,07,19,24,3.20
2017,06,07,19,25,1.60
2017,06,07,19,28,3.20
2017,06,07,19,29,3.20
2017,06,07,19,30,3.20
2017,06,07,19,31,1.60
2017,06,07,19,32,3.20
2017,06,07,19,33,3.20
2017,06,07,19,34,4.80
2017,06,07,19,35,6.40
2017,06,07,19,36,4.80
2017,06,07,19,37,4.80
2017,06,07,19,38,4.80
2017,06,07,19,39,6.40
2017,06,07,19,40,6.40
2017,06,07,19,41,6.40
2017,06,07,19,42,6.40
2017,06,07,19,43,6.40
2017,06,07,19,44,3.20
2017,06,07,19,45,4.80
2017,06,07,19,46,3.20
2017,06,07,19,47,3.20
2017,06,07,19,48,1.60
2017,06,07,19,49,3.20
2017,06,07,19,50,1.60
2017,06,07,19,55,3.20
2017,06,07,19,56,3.20
2017,06,07,19,57,3.20
2017,06,07,19,58,3.20
2017,06,07,19,59,4.80
2017,06,07,20,00,3.20
2017,06,07,20,01,1.60
2017,06,07,20,02,1.60
2017,06,07,20,25,1.60
2017,06,07,20,26,3.20
2017,06,07,20,27,3.20
2017,06,07,20,28,3.20
2017,06,07,20,33,1.60
2017,06,07,20,34,4.80
2017,06,07,20,35,4.80
2017,06,07,20,36,4.80
2017,06,07,20,37,3.20
2017,06,07,20,38,1.60
2017,06,07,20,39,1.60
2017,06,07,20,40,1.60
2017,06,07,20,41,1.60
2017,06,07,20,42,1.60
2017,06,07,20,43,3.20
2017,06,07,20,44,1.60
2017,06,07,20,45,3.20
2017,06,07,20,46,1.60
2017,06,07,20,47,1.60
2017,06,07,20,48,1.60
2017,06,07,20,49,1.60
2017,06,07,20,55,1.60
2017,06,07,20,56,4.80
2017,06,07,20,57,3.20
2017,06,07,20,59,3.20
2017,06,07,21,00,3.20
2017,06,07,21,01,1.60
2017,06,07,21,02,1.60
2017,06,07,21,03,3.20
2017,06,07,21,04,3.20
2017,06,07,21,05,3.20
2017,06,07,21,06,1.60
2017,06,07,21,08,1.60
2017,06,07,21,09,1.60
2017,06,07,21,25,1.60
2017,06,07,21,31,3.20
2017,06,07,21,32,4.80
2017,06,07,21,33,4.80
2017,06,07,21,34,3.20
2017,06,07,21,35,4.80
2017,06,07,21,36,4.80
2017,06,07,21,37,3.20
2017,06,07,21,38,3.20
2017,06,07,21,39,1.60
2017,06,07,21,40,3.20
2017,06,07,21,41,1.60
2017,06,07,21,50,1.60
2017,06,07,21,51,1.60
2017,06,07,21,52,1.60
2017,06,07,21,53,3.20
2017,06,07,21,54,4.80
2017,06,07,21,55,3.20
2017,06,07,21,56,3.20
2017,06,07,21,57,3.20
2017,06,07,21,58,4.80
2017,06,07,21,59,4.80
2017,06,07,22,00,4.80
2017,06,07,22,01,4.80
2017,06,07,22,02,4.80
2017,06,07,22,03,8.10
2017,06,07,22,04,8.10
2017,06,07,22,05,4.80
2017,06,07,22,06,6.40
2017,06,07,22,07,6.40
2017,06,07,22,08,6.40
2017,06,07,22,09,6.40
2017,06,07,22,10,9.60
2017,06,07,22,11,14.50
2017,06,07,22,12,6.40
2017,06,07,22,13,4.80
2017,06,07,22,14,4.80
2017,06,07,22,15,8.10
2017,06,07,22,16,9.60
2017,06,07,22,17,11.30
2017,06,07,22,18,11.30
2017,06,07,22,19,8.10
2017,06,07,22,20,6.40
2017,06,07,22,21,6.40
2017,06,07,22,22,6.40
2017,06,07,22,23,8.10
2017,06,07,22,24,6.40
2017,06,07,22,25,6.40
2017,06,07,22,26,6.40
2017,06,07,22,27,4.80
2017,06,07,22,28,6.40
2017,06,07,22,29,6.40
2017,06,07,22,30,8.10
2017,06,07,22,31,4.80
2017,06,07,22,32,6.40
2017,06,07,22,33,6.40
2017,06,07,22,34,4.80
2017,06,07,22,35,4.80
2017,06,07,22,36,4.80
2017,06,07,22,37,4.80
2017,06,07,22,38,4.80
2017,06,07,22,39,3.20
2017,06,07,22,40,4.80
2017,06,07,22,41,4.80
2017,06,07,22,42,4.80
2017,06,07,22,43,4.80